Sioux Falls, SD

5:59 AM CST on February 20, 2017 (GMT -0600)
Foss

Weather History for KFSD - January, 2015

Change the Weather History Date:

Saturday, January 24, 2015

  Actual Average Record
Temperature  
Mean Temperature 35 °F 17 °F  
Max Temperature 42 °F 27 °F 66 °F (1981)
Min Temperature 28 °F 7 °F -32 °F (1894)
Degree Days  
Heating Degree Days 30 48  
Month to date heating degree days 1137 1170  
Since 1 July heating degree days 4142 4303  
Cooling Degree Days 0 0  
Month to date cooling degree days 0 0  
Year to date cooling degree days 0 0  
Moisture  
Dew Point 31 °F    
Average Humidity 81    
Maximum Humidity 92    
Minimum Humidity 70    
Precipitation  
Precipitation 0.08 in 0.01 in 0.25 in (2017)
Month to date precipitation 0.55 0.43  
Year to date precipitation 0.55 0.43  
Snow  
Snow 0.20 in 0.30 in 2.60 in (1956)
Month to date snowfall 6.5 5.9  
Since 1 July snowfall 20.7 22.8  
Snow Depth T in    
Sea Level Pressure  
Sea Level Pressure 29.71 in    
Wind  
Wind Speed 5 mph (WNW)    
Max Wind Speed 17 mph    
Max Gust Speed 21 mph    
Visibility 9 miles    
Events Rain , Snow    
T = Trace of Precipitation, MM = Missing Value Source: NWS Daily Summary

Daily Weather History Graph

Daily Weather History Graph

Search for Another Location

Airport or City:

Trip Planner

Search our weather history database for the weather conditions in past years. The results will help you decide how hot, cold, wet, or windy it might be!

Date:

Astronomy

Jan. 24, 2015 Rise Set
Actual Time 7:51 AM CST 5:27 PM CST
Civil Twilight 7:20 AM CST 5:58 PM CST
Nautical Twilight 6:45 AM CST 6:33 PM CST
Astronomical Twilight 6:11 AM CST 7:07 PM CST
Moon 10:11 AM CST (1/24) 10:57 PM CST (1/24)
Length of Visible Light 10h 38m
Length of Day
9h 36m
Waxing Crescent, 24% of the Moon is Illuminated
Jan 24
Waxing Crescent
Jan 26
First Quarter
Feb 3
Full
Feb 11
Last Quarter
Feb 18
New

Hourly Weather History & Observations

Time (CST) Temp. Windchill Dew Point Humidity Pressure Visibility Wind Dir Wind Speed Gust Speed Precip Events Conditions
12:56 AM 30.9 °F - 28.0 °F 89% 29.94 in 10.0 mi Calm Calm - N/A   Clear
1:56 AM 30.9 °F 27.5 °F 27.0 °F 85% 29.92 in 10.0 mi South 3.5 mph - N/A   Clear
2:56 AM 30.0 °F 25.2 °F 27.0 °F 88% 29.91 in 10.0 mi WSW 4.6 mph - N/A   Clear
3:56 AM 28.9 °F 23.9 °F 26.1 °F 89% 29.89 in 10.0 mi West 4.6 mph - N/A   Clear
4:56 AM 30.9 °F 25.2 °F 27.0 °F 85% 29.88 in 10.0 mi West 5.8 mph - N/A   Mostly Cloudy
5:56 AM 32.0 °F 25.6 °F 28.0 °F 85% 29.87 in 10.0 mi WNW 6.9 mph - N/A   Mostly Cloudy
6:56 AM 30.0 °F 26.5 °F 26.1 °F 85% 29.86 in 10.0 mi West 3.5 mph - N/A   Scattered Clouds
7:56 AM 30.0 °F 26.5 °F 26.1 °F 85% 29.83 in 10.0 mi WSW 3.5 mph - N/A   Partly Cloudy
8:56 AM 33.1 °F 28.7 °F 28.0 °F 82% 29.81 in 10.0 mi West 4.6 mph - N/A   Mostly Cloudy
9:56 AM 36.0 °F 30.3 °F 28.9 °F 76% 29.79 in 10.0 mi West 6.9 mph - N/A   Overcast
10:56 AM 37.9 °F 32.1 °F 30.0 °F 73% 29.77 in 10.0 mi West 8.1 mph - N/A   Overcast
11:56 AM 39.0 °F 34.8 °F 30.0 °F 70% 29.73 in 10.0 mi WSW 5.8 mph - N/A   Overcast
12:56 PM 39.9 °F 33.9 °F 30.9 °F 70% 29.69 in 10.0 mi West 9.2 mph - N/A   Overcast
1:56 PM 41.0 °F 35.2 °F 32.0 °F 70% 29.67 in 10.0 mi West 9.2 mph - N/A   Overcast
2:56 PM 42.1 °F 37.1 °F 33.1 °F 70% 29.64 in 10.0 mi West 8.1 mph - N/A   Overcast
3:56 PM 42.1 °F 39.2 °F 34.0 °F 73% 29.63 in 10.0 mi West 4.6 mph - 0.00 in Rain Light Rain
4:56 PM 41.0 °F - 34.0 °F 76% 29.63 in 10.0 mi Calm Calm - 0.00 in Rain Light Rain
5:56 PM 39.0 °F 35.7 °F 33.1 °F 79% 29.61 in 10.0 mi West 4.6 mph - 0.00 in   Mostly Cloudy
6:56 PM 36.0 °F - 33.1 °F 89% 29.60 in 10.0 mi Calm Calm - N/A   Overcast
7:56 PM 37.0 °F - 34.0 °F 89% 29.60 in 10.0 mi Calm Calm - 0.00 in   Overcast
8:56 PM 37.0 °F - 35.1 °F 93% 29.60 in 10.0 mi Calm Calm - N/A   Overcast
9:07 PM 37.9 °F 33.5 °F 36.0 °F 93% 29.56 in 10.0 mi NNW 5.8 mph - N/A   Overcast
9:46 PM 37.0 °F 31.6 °F 35.1 °F 93% 29.57 in 6.0 mi North 6.9 mph - 0.00 in Rain Light Rain
9:48 PM 37.0 °F 31.0 °F 35.1 °F 93% 29.57 in 6.0 mi North 8.1 mph - 0.00 in Rain Light Rain
9:56 PM 37.0 °F 31.0 °F 35.1 °F 93% 29.61 in 7.0 mi North 8.1 mph - 0.01 in Rain Light Rain
10:21 PM 36.0 °F 28.0 °F 35.1 °F 97% 29.59 in 6.0 mi North 11.5 mph - 0.00 in Rain Light Rain
10:41 PM 36.0 °F 27.1 °F 34.0 °F 93% 29.60 in 7.0 mi North 13.8 mph - 0.00 in Rain Light Rain
10:56 PM 35.1 °F 25.9 °F 33.1 °F 92% 29.65 in 7.0 mi North 13.8 mph - 0.01 in Snow Light Snow
11:13 PM 33.1 °F 24.4 °F 32.0 °F 96% 29.63 in 1.5 mi North 11.5 mph - 0.03 in Snow Light Snow
11:56 PM 33.1 °F 23.9 °F 32.0 °F 96% 29.70 in 1.5 mi North 12.7 mph - 0.06 in Snow Light Snow